[[{"header":{"parameterUnit":"m.s-1","parameterCategory":2,"la1":30.2991,"la2":30.254,"lo1":-89.0895,"lo2":-89.0444,"dy":0.0017,"dx":0.0017,"nx":28,"ny":28,"refTime":"2025-12-21T09:00:00:Z","depth":"0","parameterNumber":2,"parameterNumberName":"U-component_of_CURRENTS"},"data":[0,0,0,0,0,0,0,0,0,0,0,0,0,0,0,0,0,0,0,0,0,0,0,0,0,0,0,0,0,0,0,0,0,0,0,0,0,0,0,0,0,0,0,0,0,0,0,0,0,0,0,0,0,0,0,0,0,0,0.1974,0.1975,0,0.2015,0.2016,0.2016,0.2024,0.2024,0.2024,0.2023,0.2015,0.2015,0.2015,0,0,0,0,0,0,0,0,0,0,0,0,0,0.1892,0.1893,0.1974,0.1975,0.1976,0.2015,0.2016,0.2016,0.2024,0.2024,0.2024,0.2023,0.2015,0.2015,0.2015,0,0,0,0,0,0,0,0,0,0,0,0,0,0.1928,0.1894,0.1974,0.1985,0.1987,0.2015,0.2016,0.2016,0.2024,0.2024,0.2023,0.2023,0.2015,0.2015,0.2015,0.2021,0,0,0.2015,0.2015,0,0,0,0,0,0,0,0,0.1926,0.1931,0.1983,0.1985,0.1987,0.2016,0.1984,0.2016,0.2024,0.2008,0.2023,0.2023,0.2012,0.2012,0.2019,0.202,0.202,0.2015,0.2015,0.2015,0.2015,0,0,0,0,0,0,0,0.1924,0.193,0.1989,0.1984,0.1986,0.1985,0.199,0.199,0.2009,0.201,0.2011,0.2018,0.2012,0.2019,0.2019,0.202,0.2015,0.2015,0.2015,0.2015,0.2043,0.2044,0,0,0,0,0,0,0.1923,0.1927,0.1988,0.199,0.1957,0.1987,0.1992,0.2005,0.201,0.2012,0.2018,0.2018,0.2019,0.2019,0.2019,0.2041,0.2015,0.2015,0.2015,0.2042,0.2043,0.2044,0,0,0,0,0,0,0.1921,0.1928,0.1986,0.196,0.1968,0.1989,0.2003,0.2006,0.2016,0.2018,0.2017,0.2025,0.2019,0.2019,0.2027,0.204,0.2015,0.2015,0.2041,0.2042,0.2043,0.2076,0,0,0,0,0,0,0.1919,0.1928,0.1934,0.1961,0.197,0.2007,0.2004,0.2007,0.2022,0.2022,0.2024,0.2023,0.2019,0.2027,0.2027,0.204,0.2015,0.204,0.2042,0.2043,0.2074,0.2078,0.2082,0,0,0,0,0,0.1916,0.1926,0.1934,0.1941,0.1978,0.2007,0.2012,0.2024,0.2022,0.203,0.2033,0.2023,0.2036,0.2028,0.2027,0.204,0.2039,0.2041,0.2043,0.2072,0.2077,0.2082,0,0,0,0,0,0,0.1888,0.1929,0.1938,0.1958,0.1983,0.2009,0.2017,0.2026,0.2036,0.2035,0.2032,0.2031,0.2044,0.2038,0.2029,0.2053,0.2036,0.2038,0.2059,0.2064,0.2068,0.2066,0.2015,0,0,0,0,0,0.1887,0.1907,0.1942,0.1957,0.1971,0.1994,0.2006,0.2019,0.2033,0.2037,0.204,0.2043,0.2051,0.2054,0.2057,0.2069,0.2103,0.2078,0.2082,0.2085,0.2084,0.2132,0.214,0.205,0.205,0.2049,0,0,0.1877,0.1903,0.1913,0.1952,0.1971,0.1996,0.2,0.2023,0.2042,0.2034,0.2052,0.2055,0.2057,0.2074,0.2078,0.207,0.2142,0.2087,0.209,0.2088,0.2134,0.2143,0.2151,0.2051,0.205,0.205,0,0,0.1874,0.1896,0.1914,0.194,0.1976,0.1995,0.2003,0.2035,0.2047,0.2067,0.2069,0.208,0.2088,0.2098,0.2102,0.2129,0.2159,0.2131,0.2151,0.2197,0.2205,0.2212,0.2324,0.2341,0.2134,0.2134,0.2134,0,0.186,0.1892,0.1921,0.1949,0.1968,0.1996,0.2018,0.204,0.2069,0.2082,0.2075,0.2105,0.2101,0.2131,0.2139,0.2137,0.2192,0.2132,0.2203,0.221,0.2217,0.2329,0.2347,0.2136,0.2136,0.2136,0.2136,0,0.1878,0.1902,0.1915,0.1961,0.1985,0.2009,0.2047,0.207,0.2084,0.2104,0.2135,0.2139,0.2162,0.2161,0.2154,0.2202,0.2239,0.2203,0.2192,0.2228,0.2345,0.2363,0.2139,0.2138,0.2137,0.2137,0,0,0.185,0.1914,0.1918,0.1943,0.1994,0.2018,0.2054,0.2096,0.2133,0.2147,0.2191,0.2194,0.2206,0.2212,0.2216,0.2243,0.2349,0.2244,0.2245,0.2359,0.2514,0.2602,0.2631,0.2327,0.2329,0.233,0.2598,0,0.1853,0.1902,0.1933,0.1975,0.2003,0.2042,0.2078,0.2119,0.2157,0.2208,0.2219,0.226,0.2227,0.2253,0.2274,0.2332,0.2389,0.2284,0.2458,0.2465,0.2539,0.2651,0.2628,0.2868,0.2616,0.2619,0.2621,0,0.1859,0.1896,0.1935,0.1996,0.2012,0.204,0.2112,0.2151,0.2224,0.2256,0.2297,0.2324,0.2387,0.2338,0.2471,0.2411,0.2466,0.25,0.2511,0.2586,0.2585,0.2779,0.2911,0.2836,0.2649,0.2647,0.2645,0,0.1833,0.1894,0.1924,0.1946,0.202,0.2045,0.2085,0.216,0.2209,0.2301,0.2365,0.2423,0.2504,0.2542,0.2641,0.2563,0.2805,0.2707,0.2847,0.2857,0.2868,0.2874,0.2943,0.2794,0.2793,0.2792,0.2791,0,0.1826,0.185,0.1917,0.1939,0.1976,0.2039,0.2097,0.215,0.2251,0.2325,0.2396,0.2492,0.2554,0.2697,0.2718,0.29,0.2889,0.2896,0.2933,0.2886,0.2891,0.2847,0.2784,0.2802,0.28,0.2798,0.2796,0,0.1787,0.1832,0.1869,0.1945,0.1963,0.1993,0.2088,0.2143,0.2261,0.2372,0.2412,0.2597,0.2799,0.2907,0.3044,0.306,0.3115,0.3226,0.3213,0.3242,0.3237,0.3178,0.3184,0.3065,0.3407,0.3411,0.3414,0,0.1769,0.1788,0.1853,0.1869,0.1899,0.1957,0.1996,0.2113,0.2183,0.2431,0.2487,0.2752,0.2911,0.323,0.3338,0.3494,0.3301,0.3539,0.3344,0.3285,0.3245,0.3049,0.2929,0.3404,0.3407,0.3409,0.3411,0,0.1728,0.175,0.178,0.1813,0.1849,0.19,0.1977,0.2032,0.2196,0.2336,0.2554,0.2718,0.31,0.3298,0.357,0.362,0.3389,0.359,0.3508,0.3253,0.3062,0.2951,0.3222,0.3432,0.343,0.3428,0.3427,0.3426,0.1678,0.1682,0.1715,0.1745,0.1782,0.183,0.1841,0.1962,0.2082,0.2278,0.2506,0.2764,0.3175,0.3561,0.3604,0.3726,0.3558,0.3619,0.3568,0.3386,0.3203,0.3567,0.3811,0.3811,0.3811,0.3811,0.3812,0,0.1606,0.1619,0.1645,0.1667,0.1676,0.1733,0.1809,0.1829,0.1928,0.2209,0.2407,0.2896,0.321,0.3495,0.3798,0.3713,0.3466,0.3618,0.3297,0.3181,0.3528,0.3456,0.3659,0.3659,0.3659,0.3659,0.3659,0.3659,0.1559,0.1555,0.158,0.1557,0.1571,0.1553,0.1575,0.1639,0.1805,0.2106,0.2402,0.2687,0.3226,0.3706,0.3787,0.3688,0.3316,0.3271,0.3128,0.3363,0.3355,0.3346,0.3263,0.3422,0.3421,0.2654,0.2649,0.2645]},{"header":{"parameterUnit":"m.s-1","parameterCategory":2,"la1":30.2991,"la2":30.254,"lo1":-89.0895,"lo2":-89.0444,"dy":0.0017,"dx":0.0017,"nx":28,"ny":28,"refTime":"2025-12-21T09:00:00:Z","depth":"0","parameterNumber":3,"parameterNumberName":"V-component_of_CURRENTS"},"data":[0,0,0,0,0,0,0,0,0,0,0,0,0,0,0,0,0,0,0,0,0,0,0,0,0,0,0,0,0,0,0,0,0,0,0,0,0,0,0,0,0,0,0,0,0,0,0,0,0,0,0,0,0,0,0,0,0,0,-0.0391,-0.0392,0,-0.0466,-0.0467,-0.0467,-0.0517,-0.0518,-0.0518,-0.0518,-0.0617,-0.0619,-0.0621,0,0,0,0,0,0,0,0,0,0,0,0,0,-0.0335,-0.0336,-0.0391,-0.0392,-0.0393,-0.0465,-0.0467,-0.0468,-0.0517,-0.0518,-0.0518,-0.0518,-0.0616,-0.0619,-0.0622,0,0,0,0,0,0,0,0,0,0,0,0,0,-0.038,-0.0336,-0.0391,-0.0426,-0.043,-0.0465,-0.0467,-0.0468,-0.0517,-0.0518,-0.0518,-0.0519,-0.0615,-0.0619,-0.0622,-0.0636,0,0,-0.0633,-0.0634,0,0,0,0,0,0,0,0,-0.0377,-0.0382,-0.042,-0.0424,-0.0428,-0.0482,-0.0483,-0.0525,-0.0517,-0.0485,-0.0518,-0.0519,-0.0573,-0.058,-0.0594,-0.064,-0.0644,-0.0633,-0.0635,-0.0637,-0.0638,0,0,0,0,0,0,0,-0.0374,-0.038,-0.0421,-0.0421,-0.0426,-0.0453,-0.0459,-0.0491,-0.0527,-0.0488,-0.0491,-0.0498,-0.0576,-0.059,-0.0597,-0.0646,-0.0633,-0.0636,-0.0638,-0.064,-0.0716,-0.0716,0,0,0,0,0,0,-0.0361,-0.0376,-0.0419,-0.0424,-0.0402,-0.0453,-0.046,-0.0465,-0.0526,-0.0535,-0.0498,-0.05,-0.0584,-0.0593,-0.06,-0.0622,-0.0637,-0.064,-0.0642,-0.0716,-0.0716,-0.0716,0,0,0,0,0,0,-0.0359,-0.0364,-0.0416,-0.0401,-0.041,-0.0453,-0.0458,-0.0466,-0.0481,-0.0533,-0.0543,-0.0504,-0.0585,-0.0595,-0.0627,-0.0626,-0.0642,-0.0645,-0.0716,-0.0716,-0.0716,-0.0663,0,0,0,0,0,0,-0.0357,-0.0363,-0.036,-0.04,-0.041,-0.043,-0.0458,-0.0467,-0.0484,-0.0488,-0.0542,-0.0552,-0.0586,-0.0621,-0.0631,-0.0631,-0.0648,-0.0716,-0.0716,-0.0716,-0.0665,-0.0661,-0.0658,0,0,0,0,0,-0.0355,-0.0347,-0.0359,-0.0365,-0.0405,-0.043,-0.0437,-0.0471,-0.0484,-0.0486,-0.0524,-0.055,-0.0627,-0.0624,-0.0635,-0.0636,-0.0717,-0.0716,-0.0716,-0.0667,-0.0662,-0.0658,0,0,0,0,0,0,-0.0319,-0.0353,-0.0367,-0.0369,-0.0395,-0.0438,-0.0442,-0.0465,-0.0497,-0.05,-0.055,-0.0562,-0.059,-0.0619,-0.0614,-0.0658,-0.0676,-0.0677,-0.0634,-0.0631,-0.0627,-0.0612,-0.0651,0,0,0,0,0,-0.0309,-0.0314,-0.035,-0.0351,-0.0361,-0.04,-0.0414,-0.0436,-0.047,-0.0484,-0.0521,-0.0561,-0.0597,-0.0617,-0.0652,-0.0674,-0.0689,-0.0682,-0.0678,-0.0675,-0.067,-0.0707,-0.0706,-0.0715,-0.0715,-0.0715,0,0,-0.0295,-0.0314,-0.0317,-0.0344,-0.0366,-0.0375,-0.0409,-0.0425,-0.0434,-0.0489,-0.051,-0.055,-0.06,-0.0627,-0.0642,-0.0651,-0.0673,-0.0675,-0.0672,-0.0669,-0.0707,-0.0706,-0.0705,-0.0715,-0.0715,-0.0715,0,0,-0.0267,-0.0285,-0.0279,-0.0298,-0.0326,-0.0351,-0.0352,-0.0392,-0.0411,-0.0437,-0.048,-0.0516,-0.0567,-0.0605,-0.0631,-0.0628,-0.0653,-0.0638,-0.0611,-0.0646,-0.0646,-0.0645,-0.0626,-0.0625,-0.0637,-0.0637,-0.0637,0,-0.0247,-0.0247,-0.028,-0.0281,-0.0289,-0.0336,-0.033,-0.0358,-0.0403,-0.0414,-0.0434,-0.0514,-0.0557,-0.0596,-0.0598,-0.062,-0.0626,-0.0622,-0.0641,-0.0641,-0.0642,-0.0623,-0.0622,-0.0634,-0.0635,-0.0635,-0.0635,0,-0.0218,-0.0218,-0.0215,-0.0231,-0.0244,-0.0247,-0.0287,-0.0302,-0.033,-0.0361,-0.0402,-0.0467,-0.0509,-0.0535,-0.0568,-0.0596,-0.0591,-0.0631,-0.0648,-0.0638,-0.0618,-0.0618,-0.0631,-0.0632,-0.0632,-0.0633,0,0,-0.0167,-0.0189,-0.0187,-0.0183,-0.0216,-0.0221,-0.0234,-0.0257,-0.0251,-0.0318,-0.0311,-0.0406,-0.0439,-0.047,-0.0522,-0.0564,-0.0568,-0.0594,-0.0598,-0.0568,-0.0604,-0.053,-0.0523,-0.0614,-0.0615,-0.0615,-0.0574,0,-0.0131,-0.0115,-0.0139,-0.0122,-0.0116,-0.0156,-0.0157,-0.0186,-0.0213,-0.0217,-0.0302,-0.0316,-0.0415,-0.0417,-0.0484,-0.0531,-0.0571,-0.0572,-0.0625,-0.0625,-0.0557,-0.0523,-0.0536,-0.0496,-0.0574,-0.0574,-0.0574,0,-0.009,-0.0086,-0.0059,-0.006,-0.0058,-0.0052,-0.005,-0.0057,-0.0087,-0.01,-0.0153,-0.0204,-0.0261,-0.0343,-0.0454,-0.0447,-0.0525,-0.0581,-0.0581,-0.0534,-0.0553,-0.0528,-0.0493,-0.0727,-0.0575,-0.0575,-0.0575,0,-0.0031,-0.0027,0.0,-0.0002,-0.0011,0.0004,0.0004,-0.0016,0.0024,-0.0007,0.005,-0.0085,-0.0057,-0.0227,-0.0331,-0.0395,-0.0423,-0.0526,-0.0541,-0.0535,-0.0566,-0.0561,-0.0761,-0.0624,-0.0624,-0.0625,-0.0625,0,0.0019,0.0041,0.0035,0.0051,0.0099,0.0072,0.0141,0.0115,0.016,0.0267,0.013,0.0219,-0.0025,-0.0065,-0.0257,-0.0346,-0.0365,-0.0514,-0.0523,-0.0541,-0.0535,-0.0757,-0.0888,-0.0623,-0.0623,-0.0624,-0.0624,0,0.0084,0.0073,0.011,0.0119,0.013,0.017,0.026,0.0333,0.035,0.0502,0.0522,0.0492,0.0447,0.0222,0.0028,-0.0162,-0.0431,-0.0357,-0.0323,-0.0329,-0.0603,-0.0729,-0.0884,-0.0977,-0.0396,-0.0394,-0.0392,0,0.0119,0.0144,0.0175,0.022,0.0234,0.0306,0.0386,0.042,0.0548,0.0706,0.0826,0.0827,0.0874,0.063,0.027,-0.0032,-0.0294,-0.0237,-0.0396,-0.0595,-0.0745,-0.0845,-0.0922,-0.0408,-0.0406,-0.0405,-0.0404,0,0.0194,0.0205,0.024,0.0343,0.0428,0.0548,0.0683,0.0823,0.0942,0.1087,0.1315,0.1358,0.1136,0.0855,0.0447,0.0187,-0.0404,-0.0219,-0.0473,-0.0794,-0.0874,-0.0973,-0.0422,-0.0394,-0.0395,-0.0396,-0.0396,-0.0397,0.0262,0.0315,0.0385,0.0503,0.0612,0.0834,0.099,0.1174,0.142,0.1689,0.1694,0.1793,0.1327,0.0763,0.0405,-0.0279,-0.0303,-0.0537,-0.0672,-0.0753,-0.0863,-0.0237,-0.0192,-0.0192,-0.0192,-0.0192,-0.0191,0,0.0377,0.0451,0.0555,0.0731,0.0931,0.095,0.1232,0.142,0.1752,0.1932,0.2101,0.1913,0.1331,0.0687,-0.0202,-0.067,-0.0909,-0.0942,-0.117,-0.1229,-0.0721,-0.0745,-0.0761,-0.076,-0.076,-0.076,-0.076,-0.0759,0.0445,0.0591,0.0673,0.1025,0.1163,0.1455,0.1643,0.1867,0.203,0.2265,0.2297,0.2283,0.1775,0.0166,-0.0931,-0.1185,-0.157,-0.1608,-0.1766,-0.1522,-0.1498,-0.1475,-0.1533,-0.1713,-0.1714,-0.2253,-0.2259,-0.2263]}],[{"header":{"parameterUnit":"m.s-1","parameterCategory":2,"la1":30.2991,"la2":30.254,"lo1":-89.0895,"lo2":-89.0444,"dy":0.0017,"dx":0.0017,"nx":28,"ny":28,"refTime":"2025-12-21T09:00:00:Z","depth":"2","parameterNumber":2,"parameterNumberName":"U-component_of_CURRENTS"},"data":[0,0,0,0,0,0,0,0,0,0,0,0,0,0,0,0,0,0,0,0,0,0,0,0,0,0,0,0,0,0,0,0,0,0,0,0,0,0,0,0,0,0,0,0,0,0,0,0,0,0,0,0,0,0,0,0,0,0,0.1966,0.1967,0,0.1991,0.1991,0.1992,0.2007,0.2007,0.2007,0.2007,0.2024,0.2025,0.2025,0,0,0,0,0,0,0,0,0,0,0,0,0,0.1902,0.1903,0.1966,0.1967,0.1967,0.1991,0.1991,0.1992,0.2007,0.2007,0.2007,0.2007,0.2024,0.2024,0.2025,0,0,0,0,0,0,0,0,0,0,0,0,0,0.193,0.1904,0.1966,0.1976,0.1977,0.1991,0.1991,0.1992,0.2007,0.2007,0.2007,0.2007,0.2024,0.2024,0.2025,0.2032,0,0,0.2028,0.2028,0,0,0,0,0,0,0,0,0.1929,0.1933,0.1974,0.1975,0.1977,0.1994,0.1975,0.2004,0.2007,0.1998,0.2007,0.2007,0.2012,0.2014,0.2021,0.2033,0.2033,0.2028,0.2028,0.2028,0.2029,0,0,0,0,0,0,0,0.1927,0.1932,0.1978,0.1975,0.1976,0.1968,0.1973,0.198,0.2006,0.1998,0.1999,0.1999,0.2013,0.2021,0.2022,0.2034,0.2028,0.2028,0.2029,0.2029,0.2088,0.2089,0,0,0,0,0,0,0.1922,0.193,0.1977,0.1978,0.195,0.197,0.1975,0.199,0.2006,0.2008,0.1999,0.2,0.2019,0.2021,0.2022,0.2074,0.2028,0.2029,0.203,0.2087,0.2088,0.2089,0,0,0,0,0,0,0.1921,0.1927,0.1976,0.1952,0.1958,0.1971,0.1988,0.1991,0.2006,0.2007,0.2009,0.2012,0.2019,0.2021,0.2041,0.2073,0.2029,0.203,0.2086,0.2087,0.2089,0.2149,0,0,0,0,0,0,0.192,0.1927,0.1938,0.1953,0.1959,0.1992,0.1988,0.1991,0.2004,0.2006,0.2019,0.202,0.2019,0.204,0.2042,0.2073,0.2031,0.2084,0.2086,0.2088,0.2146,0.2153,0.2159,0,0,0,0,0,0.1917,0.1927,0.1939,0.1944,0.1974,0.1992,0.1996,0.2005,0.2005,0.2017,0.2027,0.202,0.2054,0.2041,0.2043,0.2076,0.2083,0.2086,0.2088,0.2143,0.2151,0.2159,0,0,0,0,0,0,0.19,0.193,0.1943,0.1961,0.1981,0.1995,0.2003,0.201,0.2027,0.2031,0.2031,0.2033,0.2064,0.2058,0.2043,0.2098,0.2069,0.2072,0.211,0.2118,0.2124,0.2124,0.2031,0,0,0,0,0,0.1903,0.1925,0.1948,0.1965,0.1976,0.1993,0.2001,0.2012,0.2026,0.2034,0.2043,0.2055,0.2075,0.2086,0.2097,0.2124,0.2133,0.2147,0.2153,0.2158,0.216,0.2207,0.2218,0.2098,0.2098,0.2098,0,0,0.1898,0.192,0.193,0.1964,0.198,0.2002,0.1999,0.2019,0.2043,0.2033,0.2065,0.2076,0.2086,0.2121,0.2135,0.2121,0.2199,0.2162,0.2166,0.2164,0.2211,0.2223,0.2233,0.2099,0.2099,0.2099,0,0,0.1911,0.1925,0.1954,0.1966,0.1996,0.2011,0.2019,0.2043,0.2061,0.2092,0.2096,0.2122,0.2146,0.2165,0.2177,0.2223,0.223,0.2232,0.2269,0.2315,0.2326,0.2335,0.237,0.2382,0.2237,0.2238,0.2238,0,0.1907,0.194,0.1962,0.1987,0.1994,0.2017,0.204,0.2064,0.2092,0.2115,0.2108,0.2166,0.2169,0.2223,0.2241,0.2239,0.2264,0.224,0.2325,0.2334,0.2343,0.2376,0.2388,0.2241,0.224,0.224,0.224,0,0.1928,0.1958,0.197,0.2015,0.2035,0.2048,0.2083,0.2112,0.2134,0.216,0.2216,0.2229,0.2267,0.2276,0.2272,0.2341,0.234,0.2327,0.2307,0.2359,0.239,0.2402,0.2245,0.2244,0.2243,0.2242,0,0,0.191,0.1974,0.1977,0.2005,0.2041,0.2061,0.2109,0.216,0.2201,0.2235,0.2293,0.2326,0.2344,0.2358,0.2367,0.2401,0.248,0.2395,0.2396,0.2432,0.259,0.2592,0.2605,0.2494,0.2496,0.2498,0.2591,0,0.1919,0.1967,0.1998,0.2043,0.2069,0.2099,0.2145,0.2197,0.2241,0.2303,0.2341,0.2395,0.2376,0.2407,0.2443,0.2477,0.2514,0.2456,0.2531,0.2533,0.2532,0.2619,0.243,0.2497,0.2602,0.2604,0.2605,0,0.1922,0.1958,0.1998,0.207,0.2084,0.2113,0.2184,0.2232,0.2322,0.2364,0.2429,0.2464,0.2537,0.2504,0.2596,0.2568,0.2584,0.2596,0.26,0.2587,0.2558,0.2461,0.2515,0.2625,0.2623,0.2622,0.2621,0,0.1887,0.1957,0.1987,0.1997,0.208,0.2111,0.2161,0.2246,0.2302,0.241,0.2476,0.2551,0.261,0.265,0.2689,0.2657,0.2783,0.2738,0.275,0.2749,0.2593,0.2576,0.2794,0.2794,0.2793,0.2793,0.2793,0,0.1863,0.189,0.1972,0.198,0.2032,0.21,0.2165,0.2232,0.234,0.2413,0.2511,0.2584,0.2652,0.2731,0.2739,0.2805,0.2832,0.2779,0.2787,0.261,0.2594,0.2697,0.2685,0.2797,0.2796,0.2795,0.2794,0,0.1811,0.1858,0.1901,0.1986,0.2014,0.205,0.2158,0.221,0.2334,0.2438,0.2484,0.2634,0.2747,0.2816,0.2888,0.2878,0.2924,0.2928,0.2718,0.27,0.284,0.283,0.2956,0.2957,0.2958,0.2959,0.296,0,0.1786,0.1804,0.1885,0.1907,0.1941,0.2007,0.2055,0.2182,0.2244,0.2452,0.2502,0.2669,0.2761,0.2914,0.2931,0.2988,0.2982,0.2821,0.2717,0.2869,0.2864,0.2851,0.284,0.2528,0.2525,0.2522,0.252,0,0.1739,0.1765,0.1796,0.1849,0.1893,0.1947,0.203,0.2077,0.2232,0.2347,0.2492,0.2594,0.2774,0.2767,0.2873,0.2859,0.2803,0.2776,0.3008,0.2527,0.2476,0.2467,0.2467,0.2499,0.2501,0.2503,0.2504,0.2505,0.1693,0.1701,0.1745,0.1789,0.1837,0.1881,0.19,0.1998,0.2097,0.2239,0.2373,0.2479,0.2569,0.265,0.2613,0.2597,0.2763,0.263,0.2632,0.2638,0.2583,0.2539,0.2562,0.2564,0.2567,0.2568,0.257,0,0.1631,0.1655,0.169,0.1733,0.1752,0.1813,0.1878,0.1881,0.1952,0.2105,0.2215,0.2141,0.2211,0.2296,0.2261,0.2303,0.222,0.22,0.2062,0.2089,0.2112,0.2022,0.1856,0.1852,0.185,0.1847,0,0,0.16,0.1602,0.1627,0.1639,0.1674,0.1674,0.169,0.1711,0.1788,0.1834,0.1893,0.2102,0.2246,0.2001,0.2013,0.1922,0.1967,0.1855,0.2444,0.2309,0.2326,0.2399,0.23,0,0,0,0,0]},{"header":{"parameterUnit":"m.s-1","parameterCategory":2,"la1":30.2991,"la2":30.254,"lo1":-89.0895,"lo2":-89.0444,"dy":0.0017,"dx":0.0017,"nx":28,"ny":28,"refTime":"2025-12-21T09:00:00:Z","depth":"2","parameterNumber":3,"parameterNumberName":"V-component_of_CURRENTS"},"data":[0,0,0,0,0,0,0,0,0,0,0,0,0,0,0,0,0,0,0,0,0,0,0,0,0,0,0,0,0,0,0,0,0,0,0,0,0,0,0,0,0,0,0,0,0,0,0,0,0,0,0,0,0,0,0,0,0,0,-0.013,-0.0131,0,-0.0192,-0.0193,-0.0194,-0.0251,-0.0251,-0.0252,-0.0252,-0.0345,-0.0347,-0.0349,0,0,0,0,0,0,0,0,0,0,0,0,0,-0.0096,-0.0096,-0.013,-0.0131,-0.0131,-0.0192,-0.0193,-0.0195,-0.0251,-0.0251,-0.0252,-0.0252,-0.0344,-0.0347,-0.0349,0,0,0,0,0,0,0,0,0,0,0,0,0,-0.0132,-0.0096,-0.013,-0.0164,-0.0168,-0.0192,-0.0194,-0.0195,-0.0251,-0.0251,-0.0252,-0.0252,-0.0343,-0.0347,-0.035,-0.0357,0,0,-0.0359,-0.0361,0,0,0,0,0,0,0,0,-0.013,-0.0134,-0.0159,-0.0162,-0.0166,-0.0212,-0.0215,-0.025,-0.025,-0.0222,-0.0252,-0.0253,-0.0301,-0.0308,-0.0322,-0.0361,-0.0365,-0.036,-0.0361,-0.0363,-0.0364,0,0,0,0,0,0,0,-0.0127,-0.0131,-0.0158,-0.0159,-0.0164,-0.0189,-0.0195,-0.0222,-0.026,-0.0225,-0.0228,-0.023,-0.0304,-0.0319,-0.0324,-0.0367,-0.0359,-0.0362,-0.0364,-0.0365,-0.0427,-0.0426,0,0,0,0,0,0,-0.0111,-0.0129,-0.0156,-0.0159,-0.0146,-0.0188,-0.0195,-0.0199,-0.0259,-0.0268,-0.023,-0.0233,-0.0313,-0.0321,-0.0328,-0.0348,-0.0363,-0.0366,-0.0368,-0.0427,-0.0426,-0.0426,0,0,0,0,0,0,-0.011,-0.0113,-0.0153,-0.0143,-0.015,-0.0188,-0.0192,-0.02,-0.0217,-0.0262,-0.0272,-0.0239,-0.0314,-0.0323,-0.0351,-0.0351,-0.0367,-0.037,-0.0427,-0.0427,-0.0426,-0.0382,0,0,0,0,0,0,-0.0109,-0.0112,-0.0111,-0.0142,-0.015,-0.0162,-0.0191,-0.02,-0.0216,-0.022,-0.0273,-0.0282,-0.0315,-0.0346,-0.0354,-0.0356,-0.0372,-0.0427,-0.0427,-0.0426,-0.0384,-0.0381,-0.0377,0,0,0,0,0,-0.0108,-0.0096,-0.0111,-0.0114,-0.0146,-0.0161,-0.0167,-0.0199,-0.0215,-0.0218,-0.0254,-0.0281,-0.0348,-0.0348,-0.0357,-0.0361,-0.0428,-0.0427,-0.0426,-0.0386,-0.0381,-0.0378,0,0,0,0,0,0,-0.0079,-0.0102,-0.0118,-0.0115,-0.0135,-0.0169,-0.0172,-0.0194,-0.0225,-0.0231,-0.0278,-0.029,-0.0315,-0.034,-0.0338,-0.0376,-0.0392,-0.0393,-0.0358,-0.0354,-0.0351,-0.0332,-0.0375,0,0,0,0,0,-0.0071,-0.0073,-0.0098,-0.0097,-0.0103,-0.0138,-0.0149,-0.017,-0.0199,-0.0214,-0.0249,-0.0286,-0.0319,-0.0337,-0.0368,-0.0387,-0.041,-0.0395,-0.0391,-0.0388,-0.0378,-0.0417,-0.0417,-0.0424,-0.0424,-0.0424,0,0,-0.0058,-0.0073,-0.0072,-0.0092,-0.0111,-0.011,-0.0147,-0.0157,-0.0162,-0.0218,-0.0236,-0.0276,-0.0321,-0.0345,-0.0358,-0.0367,-0.0397,-0.0387,-0.0385,-0.0376,-0.0417,-0.0416,-0.0415,-0.0424,-0.0424,-0.0424,0,0,-0.0036,-0.0046,-0.0043,-0.0049,-0.007,-0.009,-0.0089,-0.0121,-0.0141,-0.0163,-0.0205,-0.0239,-0.0288,-0.032,-0.0343,-0.0336,-0.0378,-0.0351,-0.0321,-0.0359,-0.0359,-0.0359,-0.0382,-0.0384,-0.035,-0.035,-0.035,0,-0.0022,-0.0017,-0.0044,-0.0037,-0.0033,-0.0075,-0.0063,-0.0086,-0.0125,-0.0139,-0.0161,-0.0235,-0.0274,-0.0306,-0.0308,-0.0328,-0.0354,-0.0334,-0.0354,-0.0355,-0.0356,-0.038,-0.0383,-0.0348,-0.0348,-0.0348,-0.0348,0,0.0013,0.0013,0.002,0.0014,0.0009,0.0019,-0.001,-0.0021,-0.0052,-0.0084,-0.0124,-0.0182,-0.0229,-0.0247,-0.0278,-0.0304,-0.0322,-0.0345,-0.0363,-0.0352,-0.0378,-0.0383,-0.0345,-0.0345,-0.0346,-0.0347,0,0,0.0047,0.0045,0.0046,0.0054,0.0044,0.0045,0.0041,0.0023,0.0024,-0.0033,-0.0047,-0.0115,-0.0161,-0.0189,-0.0239,-0.0269,-0.0299,-0.0307,-0.031,-0.0327,-0.0377,-0.0394,-0.0401,-0.0334,-0.0334,-0.0335,-0.0391,0,0.0081,0.0109,0.0094,0.0121,0.0137,0.0113,0.0115,0.0091,0.0059,0.0037,-0.0038,-0.0072,-0.0137,-0.0161,-0.0207,-0.0276,-0.0309,-0.0281,-0.0388,-0.039,-0.0405,-0.0406,-0.0375,-0.0423,-0.0395,-0.0396,-0.0397,0,0.012,0.0133,0.0167,0.0178,0.0183,0.0191,0.0197,0.0191,0.0148,0.0118,0.0059,-0.0002,-0.007,-0.0117,-0.0239,-0.0222,-0.0294,-0.0344,-0.0348,-0.0381,-0.0415,-0.0432,-0.0432,-0.0404,-0.0404,-0.0403,-0.0403,0,0.0163,0.0183,0.0213,0.0225,0.0231,0.0238,0.0237,0.0213,0.0215,0.0167,0.0158,0.0057,0.0012,-0.0098,-0.0226,-0.0235,-0.0346,-0.0375,-0.0454,-0.0456,-0.0457,-0.0458,-0.0449,-0.0449,-0.0449,-0.0448,-0.0448,0,0.0213,0.0236,0.0238,0.0261,0.03,0.0282,0.0312,0.0298,0.0279,0.029,0.0193,0.0183,0.0015,-0.0076,-0.02,-0.0343,-0.0339,-0.0444,-0.0474,-0.044,-0.0439,-0.0446,-0.0444,-0.045,-0.045,-0.045,-0.0449,0,0.0254,0.0258,0.0295,0.0311,0.032,0.0346,0.0366,0.0388,0.0359,0.0374,0.036,0.027,0.0156,-0.0009,-0.0172,-0.0299,-0.0432,-0.0481,-0.0424,-0.0446,-0.0521,-0.0517,-0.0575,-0.0576,-0.0577,-0.0578,-0.0578,0,0.0279,0.0301,0.0336,0.0365,0.0374,0.0409,0.0438,0.0427,0.0455,0.0436,0.0452,0.0352,0.0302,0.0045,-0.0184,-0.0401,-0.043,-0.0518,-0.0533,-0.0512,-0.0535,-0.0529,-0.0524,-0.0514,-0.0515,-0.0515,-0.0515,0,0.0325,0.0333,0.0366,0.0423,0.046,0.051,0.0549,0.0583,0.058,0.0601,0.0613,0.0576,0.0336,0.0128,-0.0179,-0.0332,-0.0486,-0.0526,-0.0526,-0.0487,-0.046,-0.0481,-0.0477,-0.0515,-0.0515,-0.0515,-0.0515,-0.0515,0.0356,0.0388,0.0426,0.0479,0.0531,0.0593,0.0644,0.0699,0.0755,0.0797,0.0753,0.0725,0.0463,0.0095,-0.0186,-0.0483,-0.0479,-0.0573,-0.0571,-0.0569,-0.0552,-0.0528,-0.0592,-0.0592,-0.0593,-0.0593,-0.0593,0,0.0391,0.0421,0.0477,0.0537,0.0596,0.0618,0.0708,0.0767,0.0856,0.0918,0.0938,0.0723,0.0476,0.0177,-0.0255,-0.0524,-0.0546,-0.0606,-0.0565,-0.0562,-0.0561,-0.0542,-0.058,-0.0581,-0.0581,-0.0582,0,0,0.0408,0.0458,0.0479,0.0567,0.0619,0.071,0.0769,0.0869,0.0946,0.1023,0.1034,0.0977,0.0604,0.0305,-0.0072,-0.0316,-0.0378,-0.0372,-0.0356,-0.0261,-0.0255,-0.0518,-0.0484,0,0,0,0,0]}],[{"header":{"parameterUnit":"m.s-1","parameterCategory":2,"la1":30.2991,"la2":30.254,"lo1":-89.0895,"lo2":-89.0444,"dy":0.0017,"dx":0.0017,"nx":28,"ny":28,"refTime":"2025-12-21T09:00:00:Z","depth":"4","parameterNumber":2,"parameterNumberName":"U-component_of_CURRENTS"},"data":[0,0,0,0,0,0,0,0,0,0,0,0,0,0,0,0,0,0,0,0,0,0,0,0,0,0,0,0,0,0,0,0,0,0,0,0,0,0,0,0,0,0,0,0,0,0,0,0,0,0,0,0,0,0,0,0,0,0,0.1236,0.1237,0,0.1315,0.1316,0.1317,0.1375,0.1376,0.1376,0.1377,0.1457,0.1458,0.146,0,0,0,0,0,0,0,0,0,0,0,0,0,0.1135,0.1136,0.1236,0.1237,0.1239,0.1315,0.1316,0.1317,0.1375,0.1376,0.1377,0.1377,0.1456,0.1458,0.146,0,0,0,0,0,0,0,0,0,0,0,0,0,0.1191,0.1137,0.1236,0.1278,0.1283,0.1315,0.1316,0.1317,0.1375,0.1376,0.1377,0.1378,0.1456,0.1458,0.146,0.1454,0,0,0.1467,0.1468,0,0,0,0,0,0,0,0,0.1188,0.1195,0.1271,0.1275,0.128,0.1338,0.131,0.1364,0.1375,0.1338,0.1377,0.1378,0.1417,0.1423,0.1433,0.1458,0.1461,0.1467,0.1468,0.1469,0.147,0,0,0,0,0,0,0,0.1184,0.1192,0.1266,0.1272,0.1278,0.1292,0.1301,0.132,0.137,0.1341,0.1346,0.1357,0.142,0.1431,0.1435,0.1462,0.1467,0.1469,0.147,0.1471,0.1577,0.1578,0,0,0,0,0,0,0.1177,0.1188,0.1263,0.1268,0.1237,0.1294,0.1304,0.1317,0.137,0.1379,0.1356,0.136,0.1426,0.1433,0.1438,0.1517,0.1469,0.1472,0.1473,0.1575,0.1577,0.1579,0,0,0,0,0,0,0.1174,0.1183,0.126,0.1231,0.1242,0.1294,0.1309,0.1318,0.1358,0.1381,0.1391,0.139,0.1427,0.1435,0.1484,0.1517,0.1473,0.1475,0.1574,0.1576,0.1578,0.1621,0,0,0,0,0,0,0.1171,0.1181,0.1202,0.1231,0.1244,0.1299,0.1309,0.1319,0.1362,0.1368,0.1413,0.142,0.1429,0.1481,0.1486,0.152,0.1476,0.1572,0.1575,0.1577,0.1618,0.1624,0.163,0,0,0,0,0,0.1167,0.1186,0.1202,0.1212,0.1265,0.13,0.1309,0.1347,0.1363,0.1386,0.1419,0.142,0.1502,0.1484,0.149,0.1525,0.157,0.1574,0.1577,0.1615,0.1623,0.163,0,0,0,0,0,0,0.1155,0.1195,0.1213,0.1245,0.128,0.1311,0.134,0.1361,0.1404,0.142,0.1437,0.1446,0.1502,0.1506,0.1485,0.1563,0.1537,0.1542,0.1564,0.1572,0.1578,0.1575,0.1478,0,0,0,0,0,0.116,0.1188,0.1224,0.1254,0.1272,0.131,0.1334,0.1361,0.1397,0.1419,0.1448,0.1482,0.1514,0.1538,0.1563,0.1604,0.161,0.1631,0.1637,0.1643,0.1646,0.168,0.1689,0.1589,0.1589,0.1589,0,0,0.1162,0.1191,0.1206,0.1254,0.1285,0.1316,0.1328,0.1374,0.1407,0.1419,0.1479,0.1506,0.153,0.1579,0.1604,0.1592,0.1677,0.1647,0.1651,0.1651,0.1684,0.1694,0.1702,0.1591,0.1591,0.1591,0,0,0.1172,0.1208,0.1232,0.1264,0.1317,0.1341,0.1359,0.1407,0.144,0.1492,0.1512,0.1558,0.1606,0.1632,0.1649,0.1703,0.1707,0.1717,0.175,0.1784,0.1792,0.1799,0.1828,0.1837,0.1722,0.1722,0.1722,0,0.1174,0.1212,0.1245,0.1277,0.1309,0.1353,0.1386,0.1421,0.1481,0.1512,0.1521,0.1609,0.1629,0.1688,0.1711,0.1717,0.1736,0.1719,0.1791,0.1798,0.1805,0.1832,0.1842,0.1725,0.1724,0.1724,0.1724,0,0.1194,0.1236,0.1256,0.131,0.1346,0.1387,0.1434,0.148,0.1523,0.1558,0.1635,0.1668,0.172,0.1737,0.1743,0.1808,0.1806,0.1793,0.177,0.1818,0.1844,0.1853,0.1728,0.1727,0.1727,0.1726,0,0,0.1167,0.1252,0.1263,0.1299,0.1371,0.1401,0.1461,0.1524,0.1572,0.1633,0.1693,0.1754,0.1782,0.1802,0.1822,0.1854,0.192,0.1851,0.1851,0.1874,0.2001,0.1907,0.1908,0.1924,0.1925,0.1927,0.2002,0,0.1178,0.1239,0.1282,0.1348,0.1383,0.1444,0.1494,0.1559,0.1618,0.1686,0.1738,0.1802,0.1804,0.1842,0.1876,0.1912,0.1946,0.1901,0.1955,0.1956,0.1863,0.1916,0.1932,0.2009,0.2011,0.2013,0.2014,0,0.118,0.1226,0.1287,0.1375,0.1397,0.1443,0.1537,0.159,0.1685,0.1733,0.1806,0.1848,0.1924,0.1907,0.1995,0.1971,0.1992,0.201,0.2013,0.1914,0.1879,0.195,0.2031,0.203,0.2028,0.2027,0.2026,0,0.114,0.123,0.1282,0.1312,0.1411,0.1457,0.1516,0.1609,0.1664,0.1772,0.1827,0.1909,0.1972,0.2009,0.2062,0.2038,0.2147,0.2111,0.2045,0.2039,0.208,0.2072,0.2164,0.2164,0.2163,0.2163,0.2163,0,0.1126,0.1171,0.1274,0.1302,0.137,0.1447,0.1528,0.1596,0.1698,0.1771,0.1854,0.1919,0.2004,0.2075,0.2091,0.2107,0.2175,0.2061,0.2054,0.2098,0.209,0.2087,0.2078,0.2166,0.2165,0.2165,0.2164,0,0.1071,0.114,0.1204,0.1315,0.1354,0.1404,0.1528,0.1581,0.169,0.1787,0.1828,0.1955,0.2048,0.2117,0.2195,0.2145,0.2165,0.2153,0.2215,0.221,0.2025,0.2016,0.2069,0.2067,0.2065,0.2063,0.2061,0,0.1048,0.1077,0.1198,0.1239,0.1296,0.1383,0.1441,0.1561,0.1622,0.1798,0.1836,0.1973,0.2048,0.208,0.2155,0.2186,0.2162,0.2151,0.206,0.2027,0.2017,0.2012,0.2007,0.2058,0.2057,0.2056,0.2056,0,0.0999,0.1051,0.1105,0.119,0.126,0.1328,0.1427,0.1456,0.1604,0.1717,0.1804,0.1861,0.1969,0.2023,0.2074,0.2085,0.214,0.2126,0.2129,0.2044,0.2014,0.2004,0.2002,0.2048,0.2049,0.205,0.205,0,0.0963,0.0986,0.1066,0.1133,0.1213,0.1258,0.1315,0.1396,0.1468,0.1655,0.1686,0.1833,0.1956,0.1975,0.2021,0.2031,0.1989,0.1906,0.192,0.1929,0.1849,0.1788,0.1756,0,0,0,0,0,0.0923,0.0949,0.1005,0.1073,0.1146,0.1197,0.1303,0.1362,0.1501,0.1524,0.1599,0.1691,0.1769,0.1842,0.1824,0.1962,0.1995,0.1933,0.1906,0.2005,0.2014,0.1933,0,0,0,0,0,0,0.0899,0.0949,0.0979,0.1011,0.1045,0.1117,0.1178,0.127,0.1288,0.1433,0.1482,0.1597,0.1692,0.1766,0.1795,0.1818,0.1769,0.2025,0.2021,0.2,0.2008,0.2015,0.1935,0,0,0,0,0]},{"header":{"parameterUnit":"m.s-1","parameterCategory":2,"la1":30.2991,"la2":30.254,"lo1":-89.0895,"lo2":-89.0444,"dy":0.0017,"dx":0.0017,"nx":28,"ny":28,"refTime":"2025-12-21T09:00:00:Z","depth":"4","parameterNumber":3,"parameterNumberName":"V-component_of_CURRENTS"},"data":[0,0,0,0,0,0,0,0,0,0,0,0,0,0,0,0,0,0,0,0,0,0,0,0,0,0,0,0,0,0,0,0,0,0,0,0,0,0,0,0,0,0,0,0,0,0,0,0,0,0,0,0,0,0,0,0,0,0,0.0023,0.0023,0,-0.0031,-0.0032,-0.0033,-0.0076,-0.0076,-0.0077,-0.0077,-0.0158,-0.016,-0.0161,0,0,0,0,0,0,0,0,0,0,0,0,0,0.0058,0.0058,0.0023,0.0022,0.0022,-0.0031,-0.0032,-0.0033,-0.0076,-0.0076,-0.0077,-0.0077,-0.0157,-0.0159,-0.0162,0,0,0,0,0,0,0,0,0,0,0,0,0,0.0027,0.0058,0.0023,-0.0006,-0.0009,-0.0031,-0.0032,-0.0033,-0.0076,-0.0077,-0.0077,-0.0078,-0.0157,-0.0159,-0.0162,-0.0167,0,0,-0.017,-0.0171,0,0,0,0,0,0,0,0,0.0029,0.0025,-0.0001,-0.0004,-0.0007,-0.0047,-0.0049,-0.0079,-0.0076,-0.0051,-0.0077,-0.0078,-0.0122,-0.0128,-0.0137,-0.0171,-0.0174,-0.017,-0.0172,-0.0173,-0.0174,0,0,0,0,0,0,0,0.0031,0.0027,0.0001,-0.0001,-0.0005,-0.0027,-0.0032,-0.0055,-0.0084,-0.0053,-0.0056,-0.0061,-0.0125,-0.0135,-0.014,-0.0176,-0.017,-0.0173,-0.0174,-0.0175,-0.0231,-0.0231,0,0,0,0,0,0,0.0041,0.003,0.0003,-0.0001,0.001,-0.0027,-0.0032,-0.0034,-0.0083,-0.0091,-0.0061,-0.0063,-0.013,-0.0137,-0.0143,-0.0152,-0.0173,-0.0176,-0.0177,-0.0231,-0.0231,-0.0231,0,0,0,0,0,0,0.0042,0.0039,0.0005,0.0013,0.0008,-0.0026,-0.0028,-0.0035,-0.0048,-0.0088,-0.0097,-0.0068,-0.0131,-0.0139,-0.0164,-0.0156,-0.0177,-0.0179,-0.0231,-0.0231,-0.0231,-0.0171,0,0,0,0,0,0,0.0043,0.004,0.0042,0.0014,0.0008,-0.0006,-0.0028,-0.0036,-0.005,-0.0054,-0.0097,-0.0105,-0.0132,-0.016,-0.0167,-0.016,-0.0181,-0.0231,-0.0231,-0.0231,-0.0173,-0.0169,-0.0165,0,0,0,0,0,0.0045,0.0052,0.0042,0.0039,0.0011,-0.0006,-0.0011,-0.0038,-0.0049,-0.0053,-0.0082,-0.0104,-0.0163,-0.0162,-0.017,-0.0164,-0.0232,-0.0231,-0.0231,-0.0175,-0.017,-0.0165,0,0,0,0,0,0,0.0067,0.0047,0.0036,0.0036,0.0018,-0.0013,-0.0017,-0.0035,-0.006,-0.0064,-0.0103,-0.0112,-0.0132,-0.0157,-0.0154,-0.018,-0.0201,-0.0202,-0.0156,-0.0151,-0.0147,-0.0133,-0.0184,0,0,0,0,0,0.0074,0.0075,0.0049,0.005,0.0043,0.0014,0.0003,-0.0014,-0.0039,-0.0051,-0.008,-0.0111,-0.0136,-0.015,-0.0177,-0.019,-0.0218,-0.0192,-0.0188,-0.0184,-0.0178,-0.0208,-0.0206,-0.023,-0.023,-0.023,0,0,0.0084,0.0073,0.0073,0.0055,0.0039,0.0037,0.0006,-0.0005,-0.0006,-0.0055,-0.0066,-0.0099,-0.0137,-0.0152,-0.0163,-0.0172,-0.0194,-0.0184,-0.018,-0.0177,-0.0208,-0.0205,-0.0203,-0.023,-0.023,-0.023,0,0,0.0107,0.0094,0.0102,0.009,0.007,0.0054,0.0053,0.0024,0.0011,-0.0004,-0.0038,-0.0065,-0.0103,-0.0126,-0.0143,-0.0133,-0.0173,-0.0144,-0.011,-0.0138,-0.0136,-0.0135,-0.0174,-0.0176,-0.014,-0.014,-0.014,0,0.0119,0.0125,0.0102,0.0106,0.0101,0.0066,0.0074,0.0059,0.0026,0.0019,-0.0,-0.0055,-0.0088,-0.0103,-0.0102,-0.0122,-0.015,-0.0123,-0.0132,-0.0131,-0.0131,-0.0171,-0.0175,-0.0137,-0.0137,-0.0137,-0.0138,0,0.0146,0.015,0.0154,0.015,0.0144,0.0143,0.0121,0.0113,0.0092,0.0072,0.0049,0.0002,-0.003,-0.0045,-0.0072,-0.0083,-0.0109,-0.0123,-0.014,-0.0124,-0.0168,-0.0173,-0.0133,-0.0134,-0.0135,-0.0135,0,0,0.0171,0.0173,0.0174,0.0182,0.0166,0.0165,0.0168,0.0158,0.016,0.0124,0.012,0.0075,0.0044,0.0023,-0.0015,-0.0041,-0.0068,-0.0077,-0.008,-0.0109,-0.0141,-0.0159,-0.0166,-0.0084,-0.0084,-0.0084,-0.0175,0,0.0197,0.022,0.0212,0.0234,0.0243,0.0221,0.0229,0.0217,0.0194,0.018,0.0134,0.0111,0.0073,0.0054,0.0025,-0.0048,-0.0077,-0.0043,-0.0158,-0.0162,-0.0173,-0.0171,-0.0085,-0.0178,-0.018,-0.018,-0.0181,0,0.022,0.0234,0.0262,0.0279,0.0281,0.029,0.0293,0.0294,0.0268,0.0251,0.0221,0.0177,0.0131,0.0096,-0.0006,0.0016,-0.0054,-0.0109,-0.0114,-0.0153,-0.0188,-0.0198,-0.019,-0.019,-0.0189,-0.0188,-0.0188,0,0.0244,0.0267,0.0293,0.0296,0.031,0.032,0.0325,0.0313,0.0318,0.029,0.0282,0.0224,0.0182,0.0102,-0.002,-0.0013,-0.0142,-0.0148,-0.0229,-0.0232,-0.0215,-0.0215,-0.0213,-0.0213,-0.0213,-0.0213,-0.0213,0,0.0266,0.0287,0.0307,0.0319,0.0355,0.0351,0.0378,0.0373,0.0366,0.0373,0.0318,0.0299,0.0181,0.009,-0.0008,-0.014,-0.0136,-0.0223,-0.0253,-0.019,-0.0186,-0.0219,-0.0218,-0.0216,-0.0216,-0.0215,-0.0214,0,0.0281,0.0294,0.0327,0.0354,0.0366,0.0387,0.0414,0.0429,0.0419,0.0422,0.0415,0.0341,0.0227,0.0097,-0.0054,-0.0132,-0.0251,-0.03,-0.0235,-0.0259,-0.0324,-0.0319,-0.0385,-0.0386,-0.0388,-0.0388,-0.0389,0,0.0289,0.0308,0.0352,0.0374,0.0386,0.042,0.0445,0.0454,0.0468,0.0447,0.0448,0.0345,0.028,0.0062,-0.0079,-0.0271,-0.0297,-0.0362,-0.0326,-0.0318,-0.034,-0.0333,-0.0327,-0.0391,-0.0391,-0.0392,-0.0392,0,0.0303,0.0318,0.0346,0.0394,0.0427,0.0467,0.0499,0.0516,0.0523,0.0517,0.0478,0.0368,0.0232,0.0067,-0.0098,-0.0231,-0.0316,-0.0374,-0.0372,-0.0338,-0.0326,-0.0345,-0.0338,-0.0396,-0.0395,-0.0395,-0.0395,0,0.0309,0.0328,0.0364,0.0403,0.0451,0.0492,0.0515,0.0532,0.0546,0.053,0.0512,0.0378,0.0297,0.0085,-0.0061,-0.0201,-0.0225,-0.0256,-0.0261,-0.0258,-0.0195,-0.0159,-0.0201,0,0,0,0,0,0.0308,0.0326,0.0368,0.0411,0.0461,0.049,0.054,0.0558,0.057,0.0555,0.0538,0.042,0.0209,0.0115,-0.0026,-0.0094,-0.0265,-0.0265,-0.0306,-0.0417,-0.0412,-0.0361,0,0,0,0,0,0,0.0304,0.0341,0.036,0.0407,0.044,0.0495,0.0532,0.0548,0.0542,0.0538,0.0433,0.0384,0.0178,0.029,-0.0029,-0.0074,-0.0119,-0.0363,-0.0367,-0.0419,-0.0415,-0.0412,-0.0357,0,0,0,0,0]}]]